Home > Weather > Innsbruck > Past weeks

Flag for Austria Past Weather in Innsbruck, Tyrol, Austria — Yesterday and Last 2 Weeks

Now
72 °F

Overcast.


Feels Like: 74 °F
Forecast: 62 / 75 °F
Wind: N/A

Location: Innsbruck-Flughafen

Current Time: Jul 26, 2016 at 12:24:02 PM

Latest Report: Jul 26, 2016 at 12:00 PM


Visibility: 22 mi

Pressure: 30.06 "Hg (28.14 "Hg at 570m altitude)

Humidity: 71%

Dew Point: 62 °F

Location of InnsbruckLocation

Past Weather in Innsbruck — Graph

°F

Innsbruck Temperature Yesterday

Maximum temperature yesterday: 77 °F (at 3:00 PM)
Minimum temperature yesterday: 64 °F (at 6:00 AM)
Average temperature yesterday: 69 °F

High & Low Weather Summary for the Past Weeks

 TemperatureHumidityPressure
High88 °F (Jul 20, 4:00 PM)98% (Jul 13, 3:00 AM)30.36 "Hg (Jul 13, 3:00 AM)
Low48 °F (Jul 14, 5:00 AM)33% (Jul 20, 3:00 PM)29.76 "Hg (Jul 11, 4:00 PM)
Average65 °F78%30.07 "Hg
* Reported Jul 11 11:00 AM — Jul 26 11:00 AM, Innsbruck, Weather by CustomWeather, © 2016

Note: Actual official high and low records may vary slightly from our data, if they occured in-between our weather recording intervals... More about our weather records

Advertising

Innsbruck Weather History for the Previous 24 Hours

Scroll right to see more
 ConditionsComfort  
Time TempWeatherWind HumidityBarometerVisibility
11:00 AM
Tue, Jul 26
70 °FOvercast.N/A76%30.08 "Hg19 mi
10:00 AM69 °FOvercast.N/A79%30.09 "Hg22 mi
9:00 AM67 °FOvercast.N/A84%30.10 "Hg25 mi
8:00 AM65 °FOvercast.N/A88%30.11 "Hg22 mi
7:00 AM64 °FLow clouds.N/A94%30.11 "Hg14 mi
6:00 AM64 °FLow clouds.N/A93%30.11 "Hg17 mi
5:00 AM64 °FOvercast.N/A95%30.11 "Hg19 mi
4:00 AM63 °FLow clouds.N/A94%30.11 "Hg19 mi
3:00 AM64 °FPassing clouds.N/A93%30.11 "Hg19 mi
2:00 AM65 °FLow clouds.N/A93%30.11 "Hg19 mi
1:00 AM65 °FLow clouds.N/A92%30.10 "Hg19 mi
12:00 AM66 °FRain showers. Low clouds.3 mph92%30.10 "Hg16 mi
11:00 PM
Mon, Jul 25
67 °FOvercast.N/A89%30.11 "Hg28 mi
10:00 PM68 °FOvercast.N/A89%30.10 "Hg22 mi
9:00 PM70 °FOvercast.N/A86%30.08 "Hg28 mi
8:00 PM71 °FPartly sunny.N/A76%30.05 "Hg31 mi
7:00 PM71 °FPartly sunny.N/A73%30.04 "Hg28 mi
6:00 PM70 °FPartly sunny.3 mph77%30.03 "Hg31 mi
5:00 PM74 °FPartly sunny.6 mph71%30.01 "Hg25 mi
4:00 PM76 °FPartly sunny.N/A64%29.98 "Hg22 mi
3:00 PM77 °FPartly sunny.N/A55%29.98 "Hg19 mi
2:00 PM75 °FRain showers. Partly sunny.N/A62%30.01 "Hg11 mi
1:00 PM73 °FRain showers. Partly sunny.N/A76%30.02 "Hg16 mi
12:00 PM75 °FPartly sunny.N/A67%30.02 "Hg19 mi
Weather by CustomWeather, © 2016

See weather overviewHow to use our weather pages